Regional Weather Roundup
Issued by NWS San Diego, CA

Home | Current Version | Previous Version | Text Only | Print | Product List | Glossary On
Versions: 1 2 3 4 5 6 7 8 9 10 11 12 13 14 15 16 17 18 19 20 21 22 23 24 25 26 27 28 29 30 31 32 33 34 35 36 37 38 39 40 41 42 43 44 45 46 47 48 49 50
000
ASUS46 KSGX 280410
RWRSGX

SAN DIEGO HOURLY WEATHER ROUNDUP
NATIONAL WEATHER SERVICE SAN DIEGO CA
800 PM PST TUE JAN 27 2015

NOTE: "FAIR" INDICATES FEW OR NO CLOUDS BELOW 12,000 FEET WITH NO
SIGNIFICANT WEATHER AND/OR OBSTRUCTIONS TO VISIBILITY.

CAZ042-043-060-061-PZZ750-775-280500-

GREATER SAN DIEGO AREA

CITY           SKY/WX    TMP DP  RH WIND       PRES   REMARKS
LINDBERGH FLD  PTCLDY    62  53  72 NW3       30.19R
POINT LOMA       N/A     59  52  78 NW13        N/A
NATIONAL CITY    N/A     62  51  67 CALM      30.18R
CHULA VISTA      N/A     61  53  75 CALM      30.11R
IMPERIAL BEACH MOCLDY    61  53  75 NW6       30.18R
BROWN FIELD    CLEAR     60  51  72 W3        30.17R
MIRAMAR MCAS   PTCLDY    58  49  72 N5        30.18R
MONTGOMERY FLD CLEAR     59  51  75 N5        30.18R

$$

NORTH SAN DIEGO COUNTY

CITY           SKY/WX    TMP DP  RH WIND       PRES   REMARKS
CAMP PENDLETON CLEAR     54  47  77 CALM      30.17R
OCEANSIDE AP   CLEAR     54  51  90 CALM      30.17R
OCEANSIDE HBR    N/A     60  58  92 N3        30.20R
VISTA            N/A     57  50  78 CALM      30.16R
CARLSBAD       CLEAR     59  54  83 CALM      30.17R
DEL MAR          N/A     58  56  94 CALM      30.20R
FALLBROOK        N/A     58  55  91 CALM      30.17S
ESCONDIDO        N/A     59  49  69 CALM      30.19R
SAN MARCOS       N/A     59  50  72 CALM      30.16R
POWAY            N/A     55  50  84 CALM      30.20R

$$

EAST SAN DIEGO COUNTY

CITY           SKY/WX    TMP DP  RH WIND       PRES   REMARKS
RAMONA         CLEAR     48  46  93 CALM      30.18S
SANTEE LAKES     N/A     55  50  84 CALM      30.19R
LA MESA          N/A     60  51  71 CALM      30.12R
JAMUL            N/A     54  49  82 CALM      30.18R
DESCANSO N       N/A     45  41  86 CALM      30.09S
MT. LAGUNA OBS   N/A     44  36  75 CALM      29.81R
CAMPO            N/A     47  43  86 N3        30.17S

$$

ORANGE COUNTY AND THE LOS ANGELES BASIN

CITY           SKY/WX    TMP DP  RH WIND       PRES   REMARKS
JOHN WAYNE AP  CLEAR     65  52  62 CALM      30.17S
LAGUNA BEACH     N/A     55  51  86 NW2       30.14R
LAKE FOREST FR   N/A     57  48  70 CALM      30.08S
SANTA ANA        N/A     61  51  70 CALM      30.13R
HUNTINGTON BCH   N/A     56  52  85 CALM      30.19R
LOS ALAMITOS   CLEAR     59  54  83 NW3       30.17S
FULLERTON      CLEAR     62  50  64 CALM      30.17R
LONG BEACH     CLEAR     60  55  83 NW3       30.17R
L.A. AP        CLEAR     60  56  86 W6        30.17S
L.A. DOWNTOWN  CLEAR     60  54  80 CALM      30.17S

$$

THE INLAND EMPIRE

CITY           SKY/WX    TMP DP  RH WIND       PRES   REMARKS
CORONA         CLEAR     59  49  69 CALM      30.18R
CHINO          CLEAR     58  50  75 W6        30.19R
ONTARIO        PTCLDY    59  50  72 W6        30.18R
SAN BERNARDINO PTCLDY    59  46  63 CALM      30.18R
RIVERSIDE AP   CLEAR     59  49  69 CALM      30.18R
RIV CYN CREST    N/A     62  56  82 NW1         N/A
MORENO VALLEY    N/A     57  52  84 CALM      29.37R
MARCH ARB      CLEAR     53  49  86 N5        30.18R
HORSETHIEF CYN   N/A     56  46  67 S5        30.12S
PERRIS           N/A     58  52  79 NE3         N/A
MENIFEE          N/A     58  53  81 CALM      30.25R
HEMET EAST       N/A     55  44  66 CALM      30.20R
FRENCH VALLEY  FAIR      55  48  76 CALM      30.18S
TEMECULA         N/A     59  52  76 S1        30.13R

$$

SAN BERNARDINO AND RIVERSIDE COUNTY MOUNTAINS

CITY           SKY/WX    TMP DP  RH WIND       PRES   REMARKS
BIG BEAR AP    CLEAR     30  28  93 CALM      30.28S
PINE COVE        N/A     40  31  71 N2        30.22R

$$

SOUTHERN DESERT INCLUDING THE COACHELLA VALLEY

CITY           SKY/WX    TMP DP  RH WIND       PRES   REMARKS
PALM SPRINGS   CLEAR     63  52  67 NW3       30.20S
PALM DESERT      N/A     60  53  76 CALM      26.16S
THERMAL        CLEAR     57  52  83 NE6       30.17R
BLYTHE         CLEAR     60  56  86 W8        30.16S
IMPERIAL AP    CLEAR     55  52  89 NW5       30.16S
EL CENTRO NAS  PTCLDY    57  54  89 NW5       30.17S
YUMA AZ        MOCLDY    61  54  77 W5        30.16R
MEXICALI       PTCLDY    59  55  88 W7        30.17

$$

UPPER DESERT

CITY           SKY/WX    TMP DP  RH WIND       PRES   REMARKS
VICTORVILLE AP CLEAR     48  46  93 CALM      30.22S
HESPERIA         N/A     50  47  89 NW2       30.35R
APPLE VALLEY     N/A     50  46  84 CALM      30.25R
PALMDALE       CLEAR     47  45  93 SW5       30.23R
LANCASTER      PTCLDY    47  44  90 W6        30.23R
EDWARDS AFB    PTCLDY    50  49  95 S2        30.20S
DAGGETT        CLEAR     52  47  83 CALM      30.21S
29 PALMS N     CLEAR     53  50  89 W7        30.28S
NEEDLES        CLEAR     60  53  77 W8        30.18S

$$

REGIONAL REPORTS

CITY           SKY/WX    TMP DP  RH WIND       PRES   REMARKS
SANTA BARBARA  CLEAR     58  52  80 NW5       30.17F
SANDBERG       CLEAR     48  43  82 CALM      30.24S
MT. WILSON       N/A     41  36  81 S3          N/A
LAS VEGAS NV   PTCLDY    57  48  72 SW6       30.17S
PHOENIX AZ     PTCLDY    63  50  62 SW3       30.13S
TIJUANA        CLEAR     57  48  72 W5        30.19S

$$

OFFSHORE ISLANDS

CITY           SKY/WX    TMP DP  RH WIND       PRES   REMARKS
CATALINA ARPT  CLEAR     55  45  68 NW12      30.20S
SAN NICOLAS IS CLEAR    N/A N/A N/A W9        30.18F

$$

MARINE AND OFFSHORE BUOY REPORTS

STATION/POSITION SKY/WX   TEMP    WIND        PRES    SWELL
                          AIR SEA DIR/SP/G            HT/PER/DIR
                          (F)     (DEG/KT/KT) (MB)    (FT/S/D)
TANNER BANKS               62 62  350/  6/  6 1021.8R   7/270/14
S CLEMENTE BASIN           62 62  320/ 10/ 10 1021.3R   5/280/13
SAN NICOLAS IS.               63                N/A     5/290/13
SO. S. ROSA ISLA           60 62  340/  6/  6 1021.4F   7/14
W. S. BARBARA CH           60 61  320/  6/  8 1022.0F   7/270/15
S. MONICA BASIN            62 62  300/  8/ 10 1022.3R   3/280/13
S PEDRO CHANNEL               62                N/A     3/270/14
DANA POINT                    62                N/A     3/270/13
CMP PENDLETON NS              62                N/A     2/240/14
OCEANSIDE OFFSHR              62                N/A     2/240/13
TORREY PINES OTR              62                N/A     3/260/14
LA JOLLA 1                 61 63   30/  2/  2 1021.9R
MISSION BAY BUOY              62                N/A     3/250/13
SAN DIEGO BAY                 63              1022.3R
POINT LOMA SOUTH              62                N/A     5/260/14

$$



USA.gov is the U.S. government's official web portal to all federal, state and local government web resources and services.